Location: ???????
(55.7027°N, 37.3832°E)
Time: 22:25:46
(UTC+00:00)

SPOT 3 Rocket - Pass Details

Date: 14 April 2026
Orbit: 774 x 791 km, 98.5° (Epoch: 13 May)

Event Time Altitude Azimuth Distance (km) Brightness Sun altitude
Exits shadow 19:25:14 20° 202° (SSW) 1,760 5.0 -19.6°
Maximum altitude 19:28:28 42° 263° (W) 1,121 4.5 -19.9°
Drops below altitude 10° 19:33:23 10° 334° (NNW) 2,357 7.2 -20.3°
Sets 19:35:51 0° 341° (NNW) 3,287 8.3 -20.4°
